[[{"header":{"parameterUnit":"m.s-1","parameterCategory":1,"la1":30.2991,"la2":30.254,"lo1":-89.0895,"lo2":-89.0444,"dy":0.0017,"dx":0.0017,"nx":28,"ny":28,"refTime":"2025-05-25T03:00:00:Z","depth":0,"parameterNumber":2,"parameterNumberName":"U-component_of_WINDS"},"data":[0,0,0,0,0,0,0,0,0,0,0,0,0,0,0,0,0,0,0,0,0,0,0,0,0,0,0,0,0,0,0,0,0,0,0,0,0,0,0,0,0,0,0,0,0,0,0,0,0,0,0,0,0,0,0,0,0,0,-0.8937,-0.8937,0,-0.8972,-0.8972,-0.8972,-0.8971,-0.8971,-0.897,-0.897,-0.9007,-0.9009,-0.901,0,0,0,0,0,0,0,0,0,0,0,0,0,-0.8873,-0.8874,-0.8937,-0.8937,-0.8938,-0.8971,-0.8972,-0.8972,-0.8971,-0.8971,-0.897,-0.897,-0.9007,-0.9008,-0.901,0,0,0,0,0,0,0,0,0,0,0,0,0,-0.8903,-0.8874,-0.8937,-0.8941,-0.8942,-0.8971,-0.8972,-0.8973,-0.8972,-0.8971,-0.897,-0.8969,-0.9006,-0.9008,-0.901,-0.9038,0,0,-0.9017,-0.9018,0,0,0,0,0,0,0,0,-0.8902,-0.8906,-0.894,-0.8941,-0.8942,-0.8966,-0.8963,-0.8995,-0.8972,-0.896,-0.897,-0.8969,-0.8994,-0.8997,-0.9006,-0.904,-0.9042,-0.9017,-0.9019,-0.9019,-0.902,0,0,0,0,0,0,0,-0.89,-0.8904,-0.8951,-0.8941,-0.8942,-0.8943,-0.8946,-0.8969,-0.8981,-0.8961,-0.8961,-0.8965,-0.8995,-0.9003,-0.9006,-0.9042,-0.9017,-0.9019,-0.902,-0.9021,-0.9102,-0.9103,0,0,0,0,0,0,-0.8896,-0.8903,-0.895,-0.8952,-0.892,-0.8944,-0.8948,-0.8959,-0.8981,-0.8983,-0.8966,-0.8965,-0.9,-0.9004,-0.9008,-0.9042,-0.9019,-0.9021,-0.9023,-0.9101,-0.9102,-0.9103,0,0,0,0,0,0,-0.8895,-0.89,-0.8948,-0.8927,-0.8933,-0.8946,-0.8959,-0.896,-0.8969,-0.8984,-0.8987,-0.8972,-0.9,-0.9005,-0.9031,-0.9044,-0.9022,-0.9024,-0.91,-0.9102,-0.9103,-0.9111,0,0,0,0,0,0,-0.8893,-0.89,-0.891,-0.8927,-0.8934,-0.897,-0.8959,-0.8962,-0.8973,-0.8972,-0.8991,-0.8994,-0.9,-0.9028,-0.9033,-0.9046,-0.9026,-0.9099,-0.9101,-0.9102,-0.911,-0.9113,-0.9115,0,0,0,0,0,-0.8891,-0.8911,-0.891,-0.8916,-0.8947,-0.8971,-0.8975,-0.8981,-0.8974,-0.8984,-0.8994,-0.8993,-0.9041,-0.903,-0.9036,-0.905,-0.9099,-0.91,-0.9102,-0.9109,-0.9112,-0.9115,0,0,0,0,0,0,-0.8896,-0.8914,-0.8913,-0.8939,-0.8953,-0.897,-0.8984,-0.8984,-0.9001,-0.9,-0.9007,-0.9011,-0.9037,-0.9046,-0.9034,-0.9079,-0.9069,-0.9072,-0.9072,-0.9075,-0.9078,-0.9075,-0.9028,0,0,0,0,0,-0.89,-0.8916,-0.8932,-0.8954,-0.8961,-0.8971,-0.8982,-0.8985,-0.9,-0.9006,-0.9018,-0.9033,-0.9052,-0.9064,-0.9082,-0.9111,-0.9116,-0.9124,-0.9127,-0.9129,-0.9132,-0.9149,-0.9153,-0.911,-0.911,-0.911,0,0,-0.8908,-0.892,-0.8931,-0.8955,-0.8966,-0.8984,-0.8976,-0.8995,-0.9009,-0.9009,-0.9035,-0.9044,-0.9062,-0.9089,-0.9102,-0.9098,-0.9144,-0.9131,-0.9133,-0.9134,-0.9151,-0.9155,-0.9159,-0.9111,-0.9111,-0.9111,0,0,-0.8934,-0.8944,-0.8964,-0.8975,-0.8992,-0.8999,-0.9004,-0.9021,-0.9027,-0.9052,-0.9053,-0.907,-0.9102,-0.9115,-0.9125,-0.9156,-0.9156,-0.9162,-0.9175,-0.9192,-0.9195,-0.9198,-0.921,-0.9214,-0.9165,-0.9165,-0.9165,0,-0.8943,-0.8969,-0.8974,-0.8994,-0.9005,-0.9005,-0.9026,-0.9037,-0.9059,-0.9067,-0.9062,-0.9102,-0.9114,-0.9146,-0.9153,-0.9162,-0.9168,-0.916,-0.9194,-0.9197,-0.92,-0.9212,-0.9216,-0.9165,-0.9165,-0.9165,-0.9165,0,-0.898,-0.8998,-0.9012,-0.9033,-0.9046,-0.9066,-0.9075,-0.9088,-0.909,-0.9098,-0.9124,-0.9139,-0.916,-0.9168,-0.917,-0.92,-0.9196,-0.9193,-0.9183,-0.9205,-0.9216,-0.922,-0.9166,-0.9166,-0.9166,-0.9166,0,0,-0.9009,-0.9033,-0.9038,-0.9048,-0.9067,-0.9081,-0.9102,-0.9122,-0.9133,-0.9149,-0.9167,-0.9194,-0.9191,-0.9203,-0.9207,-0.9221,-0.9246,-0.9216,-0.9217,-0.9221,-0.928,-0.9283,-0.9288,-0.9246,-0.9247,-0.9247,-0.9279,0,-0.9037,-0.9073,-0.9078,-0.911,-0.9127,-0.9128,-0.9146,-0.916,-0.9168,-0.9185,-0.9194,-0.9214,-0.9208,-0.9215,-0.9229,-0.924,-0.9258,-0.9238,-0.9264,-0.9264,-0.9259,-0.9294,-0.9297,-0.9326,-0.9283,-0.9284,-0.9284,0,-0.9075,-0.909,-0.9124,-0.914,-0.9148,-0.9164,-0.9183,-0.9199,-0.9216,-0.922,-0.9234,-0.9237,-0.9259,-0.9248,-0.928,-0.9266,-0.9277,-0.9284,-0.9285,-0.9288,-0.9276,-0.9298,-0.9335,-0.934,-0.9291,-0.929,-0.929,0,-0.9094,-0.9123,-0.9147,-0.9155,-0.9176,-0.9187,-0.9196,-0.9212,-0.9224,-0.9241,-0.9249,-0.9269,-0.928,-0.9295,-0.9304,-0.9295,-0.9335,-0.9325,-0.934,-0.934,-0.9349,-0.9348,-0.9389,-0.9355,-0.9355,-0.9355,-0.9355,0,-0.9125,-0.9145,-0.9156,-0.9171,-0.9194,-0.92,-0.9224,-0.9233,-0.9247,-0.9264,-0.9266,-0.9282,-0.9292,-0.931,-0.9317,-0.9342,-0.9347,-0.9352,-0.9354,-0.9353,-0.9352,-0.936,-0.9359,-0.9356,-0.9356,-0.9356,-0.9356,0,-0.915,-0.9158,-0.9184,-0.9201,-0.9206,-0.9222,-0.9237,-0.9252,-0.926,-0.9282,-0.9287,-0.93,-0.9322,-0.9331,-0.9358,-0.9362,-0.9392,-0.9392,-0.9386,-0.9387,-0.9402,-0.9401,-0.945,-0.9457,-0.9418,-0.9418,-0.9419,0,-0.917,-0.9186,-0.9204,-0.9215,-0.9224,-0.9242,-0.9254,-0.9261,-0.9274,-0.9294,-0.9307,-0.9328,-0.9345,-0.938,-0.9392,-0.9413,-0.9414,-0.9429,-0.9417,-0.9415,-0.9415,-0.9414,-0.9416,-0.9432,-0.9432,-0.9433,-0.9433,0,-0.9204,-0.9207,-0.9224,-0.9242,-0.9257,-0.9272,-0.9286,-0.9296,-0.9305,-0.932,-0.9341,-0.9355,-0.9381,-0.9403,-0.9424,-0.9435,-0.9436,-0.9437,-0.9441,-0.944,-0.9437,-0.9439,-0.9393,-0.9436,-0.9435,-0.9435,-0.9435,-0.9435,-0.9228,-0.9242,-0.9257,-0.9276,-0.9288,-0.9301,-0.9316,-0.9326,-0.9343,-0.9365,-0.9368,-0.9392,-0.9408,-0.9437,-0.9448,-0.9467,-0.9464,-0.947,-0.9472,-0.9474,-0.9475,-0.9433,-0.9471,-0.9471,-0.9471,-0.9471,-0.9471,0,-0.9263,-0.9273,-0.929,-0.931,-0.9325,-0.9323,-0.934,-0.9353,-0.9373,-0.9388,-0.9405,-0.943,-0.9451,-0.9464,-0.9486,-0.9498,-0.9499,-0.9504,-0.9503,-0.9506,-0.9477,-0.9471,-0.9502,-0.9502,-0.9502,-0.9502,-0.9502,-0.9502,-0.9283,-0.9307,-0.9312,-0.9342,-0.9352,-0.9374,-0.9383,-0.9396,-0.9408,-0.9436,-0.9453,-0.9461,-0.9476,-0.9499,-0.9518,-0.9522,-0.953,-0.9534,-0.9538,-0.9511,-0.9508,-0.9505,-0.9499,-0.9536,-0.9536,-0.9565,-0.9566,-0.9566]},{"header":{"parameterUnit":"m.s-1","parameterCategory":1,"la1":30.2991,"la2":30.254,"lo1":-89.0895,"lo2":-89.0444,"dy":0.0017,"dx":0.0017,"nx":28,"ny":28,"refTime":"2025-05-25T03:00:00:Z","depth":0,"parameterNumber":3,"parameterNumberName":"V-component_of_WINDS"},"data":[0,0,0,0,0,0,0,0,0,0,0,0,0,0,0,0,0,0,0,0,0,0,0,0,0,0,0,0,0,0,0,0,0,0,0,0,0,0,0,0,0,0,0,0,0,0,0,0,0,0,0,0,0,0,0,0,0,0,4.6529,4.653,0,4.6597,4.6597,4.6598,4.6634,4.6634,4.6634,4.6634,4.6699,4.6701,4.6702,0,0,0,0,0,0,0,0,0,0,0,0,0,4.6429,4.6431,4.6529,4.653,4.6531,4.6597,4.6598,4.6598,4.6634,4.6634,4.6634,4.6635,4.6699,4.6701,4.6703,0,0,0,0,0,0,0,0,0,0,0,0,0,4.6482,4.6431,4.6529,4.6557,4.656,4.6596,4.6598,4.6599,4.6634,4.6634,4.6634,4.6635,4.6698,4.67,4.6703,4.6715,0,0,4.671,4.6711,0,0,0,0,0,0,0,0,4.6479,4.6486,4.6552,4.6555,4.6559,4.6607,4.6586,4.6638,4.6634,4.6606,4.6634,4.6635,4.6668,4.6673,4.6685,4.6718,4.6721,4.6711,4.6712,4.6713,4.6714,0,0,0,0,0,0,0,4.6475,4.6483,4.6556,4.6553,4.6557,4.6565,4.6573,4.6596,4.6635,4.6608,4.6611,4.6619,4.667,4.6683,4.6687,4.6722,4.671,4.6713,4.6714,4.6715,4.6771,4.6771,0,0,0,0,0,0,4.6468,4.648,4.6554,4.6558,4.6519,4.6567,4.6575,4.6591,4.6635,4.6642,4.6619,4.662,4.6679,4.6684,4.669,4.6709,4.6713,4.6715,4.6717,4.6771,4.6771,4.6771,0,0,0,0,0,0,4.6465,4.6474,4.6551,4.652,4.653,4.6568,4.6586,4.6593,4.6606,4.6643,4.665,4.6625,4.6679,4.6686,4.6709,4.6711,4.6717,4.6719,4.6771,4.6771,4.6771,4.6746,0,0,0,0,0,0,4.6462,4.6473,4.6479,4.652,4.6532,4.6571,4.6586,4.6594,4.661,4.6613,4.6651,4.6657,4.668,4.6706,4.6712,4.6715,4.6721,4.6771,4.6771,4.6771,4.6747,4.6745,4.6744,0,0,0,0,0,4.6459,4.6468,4.6479,4.6487,4.654,4.6571,4.6577,4.6605,4.661,4.6616,4.6641,4.6656,4.671,4.6708,4.6715,4.6719,4.6771,4.6771,4.6771,4.6747,4.6745,4.6744,0,0,0,0,0,0,4.6424,4.6473,4.6486,4.6509,4.6536,4.6577,4.6585,4.6601,4.6625,4.6627,4.6658,4.6666,4.6687,4.6705,4.6702,4.6734,4.6742,4.6743,4.6722,4.672,4.6718,4.6714,4.6723,0,0,0,0,0,4.6419,4.6441,4.6483,4.6499,4.6512,4.6546,4.656,4.6579,4.6607,4.6618,4.6644,4.667,4.6693,4.6707,4.673,4.6749,4.6759,4.6756,4.6754,4.6753,4.6754,4.6766,4.6766,4.6771,4.6771,4.6771,0,0,4.6409,4.6439,4.645,4.6493,4.6515,4.6537,4.6555,4.6576,4.6593,4.6621,4.6646,4.6665,4.6696,4.6718,4.6729,4.6734,4.6754,4.6753,4.6751,4.6753,4.6766,4.6766,4.6765,4.6771,4.6771,4.6771,0,0,4.6402,4.6426,4.6443,4.6466,4.6502,4.6525,4.6529,4.6568,4.6583,4.6608,4.6631,4.665,4.6688,4.671,4.6726,4.6729,4.6744,4.6735,4.6727,4.6739,4.6739,4.6739,4.6741,4.6741,4.6736,4.6736,4.6736,0,4.6384,4.6419,4.6449,4.6471,4.6489,4.6517,4.6535,4.6555,4.6595,4.6607,4.6612,4.6663,4.6685,4.6713,4.6714,4.6726,4.6731,4.6731,4.6737,4.6737,4.6737,4.674,4.674,4.6735,4.6735,4.6735,4.6735,0,4.6397,4.642,4.6429,4.647,4.6489,4.6507,4.654,4.6556,4.6573,4.6596,4.6622,4.665,4.668,4.6688,4.6704,4.6719,4.6721,4.6731,4.674,4.6735,4.6738,4.6739,4.6733,4.6734,4.6734,4.6734,0,0,4.6369,4.6427,4.643,4.645,4.6491,4.6509,4.653,4.6561,4.6574,4.6601,4.6619,4.6652,4.6662,4.6681,4.67,4.671,4.6712,4.6719,4.672,4.6718,4.6731,4.6724,4.6724,4.6723,4.6723,4.6723,4.6729,0,4.6368,4.6408,4.6436,4.6464,4.6487,4.6515,4.6533,4.656,4.6582,4.6603,4.6627,4.665,4.6662,4.6673,4.6685,4.671,4.6715,4.6709,4.674,4.674,4.6732,4.6726,4.6718,4.6722,4.673,4.673,4.673,0,4.6373,4.6401,4.6432,4.6473,4.6483,4.6499,4.6531,4.6551,4.6583,4.6598,4.6619,4.6639,4.6662,4.6669,4.67,4.6695,4.6709,4.6724,4.6724,4.6729,4.6735,4.673,4.6723,4.6724,4.6732,4.6732,4.6732,0,4.6351,4.6396,4.6421,4.6437,4.6485,4.6495,4.6515,4.6547,4.6565,4.6592,4.6604,4.6633,4.6649,4.667,4.6698,4.67,4.6727,4.6736,4.674,4.6739,4.6745,4.6744,4.6741,4.6752,4.6752,4.6752,4.6752,0,4.6347,4.6365,4.6412,4.6428,4.6449,4.6481,4.6501,4.6523,4.6552,4.6572,4.6597,4.6615,4.665,4.6672,4.6693,4.6717,4.6723,4.6736,4.6742,4.6735,4.6733,4.6744,4.6745,4.6753,4.6753,4.6752,4.6752,0,4.6326,4.6358,4.6388,4.6432,4.6443,4.6457,4.6494,4.651,4.6533,4.6558,4.6566,4.6602,4.663,4.666,4.6696,4.6711,4.6734,4.6741,4.6724,4.6727,4.673,4.673,4.6735,4.6737,4.6746,4.6746,4.6746,0,4.6323,4.6338,4.6384,4.64,4.642,4.6445,4.6464,4.6496,4.6515,4.6553,4.6564,4.6594,4.6619,4.6662,4.6691,4.672,4.6729,4.6728,4.6733,4.6726,4.673,4.6729,4.6731,4.6727,4.6727,4.6726,4.6726,0,4.6313,4.6328,4.6355,4.6388,4.641,4.6437,4.6465,4.6476,4.6514,4.6533,4.6563,4.6583,4.6622,4.6651,4.6684,4.6704,4.6722,4.6725,4.6728,4.672,4.671,4.6717,4.6721,4.6724,4.6725,4.6725,4.6725,4.6725,4.6301,4.6316,4.6352,4.6381,4.6406,4.6432,4.6449,4.6476,4.6502,4.6537,4.6554,4.6584,4.6616,4.6662,4.6682,4.6705,4.671,4.6714,4.6715,4.6716,4.6714,4.6706,4.6711,4.6711,4.6711,4.6711,4.6711,0,4.6293,4.6318,4.6345,4.6384,4.6407,4.6423,4.6455,4.6473,4.65,4.6529,4.6554,4.6589,4.6618,4.665,4.6681,4.6694,4.6703,4.6701,4.67,4.6705,4.6707,4.6702,4.6693,4.6693,4.6693,4.6693,4.6693,4.6693,4.6292,4.6319,4.6339,4.6379,4.6404,4.6434,4.6451,4.6475,4.6499,4.6537,4.6562,4.6583,4.6614,4.6648,4.6675,4.6684,4.6695,4.6691,4.6702,4.6703,4.6705,4.6706,4.6702,4.6692,4.6692,4.6698,4.6698,4.6698]}]]